Regional Weather Roundup
Issued by NWS

Home | Current Version | Previous Version | Text Only | Print | Product List | Glossary On
Versions: 1 2 3 4 5 6 7 8 9 10 11 12 13 14 15 16 17 18 19 20 21 22 23 24 25 26 27 28 29 30 31 32 33 34 35 36 37 38 39 40 41 42 43 44 45 46 47 48 49 50
000
ASCA44 KEWX 182020
RWRMX

LATIN AMERICA AND CARIBBEAN REGIONAL WEATHER ROUNDUP
NATIONAL WEATHER SERVICE AUSTIN/SAN ANTONIO TX
300 PM CDT SAT APR 18 2015

NOTE: "FAIR" INDICATED FEW OR NO CLOUDS BELOW 12,000 FEET WITH NO
SIGNIFICANT WEATHER AND/OR OBSTRUCTIONS TO VISIBILITY.

BAJA CALIFORNIA

CITY           SKY/WX    TMP DP  RH WIND       PRES   REMARKS
LORETO         MOSUNNY   77  52  41 NE12      29.93F
LA PAZ         MOSUNNY   82  43  24 N14       29.95
MEXICALI       SUNNY     90  21   8 CALM      29.91
S.J. DEL CABO  MOSUNNY   82  54  36 SE12      29.94F
TIJUANA        SUNNY     77  28  16 W12       30.01F

NORTHWESTERN MEXICO

CITY           SKY/WX    TMP DP  RH WIND       PRES   REMARKS
CULIACAN       MOSUNNY   93  68  43 W12       29.89  HX  97
DURANGO        MOSUNNY   75  25  15 SW15      30.08
GUAYMAS        SUNNY     82  45  26 S14       29.87
HERMOSILLO     SUNNY     88  23   9 SE6       29.94
CD. JUAREZ     SUNNY     73  34  23 W12       29.92
LOS MOCHIS     MOSUNNY   86  36  16 NW14      29.91F
OBREGON        MOSUNNY   88  19   8 CALM      29.88

NORTHEASTERN MEXICO

CITY           SKY/WX    TMP DP  RH WIND       PRES   REMARKS
CHIHUAHUA      MOSUNNY   73  27  17 S5        30.01
MATAMOROS      CLOUDY    79  70  73 E6        29.82
MONCLOVA       MOSUNNY   90  61  37 CALM      29.80
MONTERREY      PTSUNNY   90  59  35 NE6       29.77F
NUEVO LAREDO   CLOUDY    75  68  78 CALM      29.83
PIEDRAS NEGRAS PTSUNNY   79  66  65 CALM      29.83F
REYNOSA        MOSUNNY   81  63  54 CALM      29.77
SALTILLO       MOSUNNY   82  52  34 SE9       30.02F
TORREON        MOSUNNY   81  41  24 S2        29.97F
CD. VICTORIA   PTSUNNY   90  57  33 E5        29.81

WESTERN MEXICO

CITY           SKY/WX    TMP DP  RH WIND       PRES   REMARKS
AGUASCALIENTES MOSUNNY   75  36  23 SW13      30.15
COLIMA         MOSUNNY   82  55  39 CALM      29.97F
DEL BAJIO      MOSUNNY   79  41  25 SW9       30.20F
GUADALAJARA    MOSUNNY   84  30  14 SW3G22    30.09
MANZANILLO     MOSUNNY   82  73  74 SW9       29.84F
MAZATLAN       MOSUNNY   84  57  39 SW13      29.87F
P. VALLARTA    PTSUNNY   84  70  61 SW10      29.89F
URUAPAN        MOSUNNY   79  50  36 S12       30.14F
ZACATECAS      CLOUDY    72  46  40 S14       30.18F

CENTRAL MEXICO

CITY           SKY/WX    TMP DP  RH WIND       PRES   REMARKS
CUERNAVACA     SUNNY     90  43  19 E6        30.01F
MEXICO CITY    PTSUNNY   81  45  28 NE8       30.19F
MORELIA        PTSUNNY   81  48  32 SW7       30.16
POZA RICA      PTSUNNY   93  77  59 NE6       29.78F HX 107
PUEBLA         PTSUNNY   77  45  31 S17       30.22F
QUERETARO      MOSUNNY   79  45  29 W14       30.19F
S. LUIS POTOSI MOSUNNY   73  39  29 NW8       30.14F
TAMPICO        PTSUNNY   81  70  69 NE12      29.83F
TOLUCA         PTSUNNY   73  39  29 S13       30.31F

SOUTHERN MEXICO

CITY           SKY/WX    TMP DP  RH WIND       PRES   REMARKS
ACAPULCO       SUNNY     84  75  74 W14       29.85F HX  92
B. DE HUATULCO MOSUNNY   88  77  70 SW17      29.85F HX 100
OAXACA         MOSUNNY   86  45  23 SE5       30.07F
P. ESCONDIDO   SUNNY     82  75  78 W13       29.99F
VERACRUZ       CLOUDY    90  72  55 NE20      29.76S HX  96
ZIHUATANEJO    MOSUNNY   88  75  66 SW9       29.87F HX  97

YUCATAN PENINSULA

CITY           SKY/WX    TMP DP  RH WIND       PRES   REMARKS
CAMPECHE       MOSUNNY   97  73  46 W9        29.73F HX 107
CANCUN         PTSUNNY   84  73  70 SE13      29.89F HX  91
CHETUMAL       MOSUNNY   86  77  74 E12       29.81  HX  97
CD. DEL CARMEN SUNNY     95  70  43 E7        29.74  HX 101
COZUMEL        MOSUNNY   84  73  70 S14       29.89F HX  91
MERIDA         PTSUNNY  100  64  30 SE14      29.76F HX 103
MINATITLAN     SUNNY     95  68  41 S9        29.66  HX  99
TAPACHULA      CLOUDY    79  77  94 CALM      29.89F
TUX. GUTIERREZ PTSUNNY   95  61  31 SW7       29.82F HX  95
VILLAHERMOSA   SUNNY     95  75  52 E6        29.75F HX 107

CENTRAL AMERICA

CITY           SKY/WX    TMP DP  RH WIND       PRES   REMARKS
BELIZE CITY    MOSUNNY   88  79  74 SE6       29.80F HX 102
MANAGUA        PTCLDY    97  66  36 E14       29.74F HX 100

CARIBBEAN

CITY           SKY/WX    TMP DP  RH WIND       PRES   REMARKS
ARUBA          MOSUNNY  N/A N/A N/A E21       29.86S
CURACAO        MOSUNNY   86  73  66 E16       29.89F HX  93
KINGSTON       MOSUNNY   86  73  66 SE24      29.89F HX  93
SAN JUAN       MOSUNNY   90  68  48 SE10      29.96F HX  93
SANTO DOMINGO  MOSUNNY   86  72  62 S7        29.94F HX  92
ST. KITTS      PTSUNNY   82  73  74 E12       30.00S
ST. MAARTEN    MOSUNNY   81  72  74 E14       30.00S

$$




USA.gov is the U.S. government's official web portal to all federal, state and local government web resources and services.